User: anonymous   Login
Location: Unspecified
(0.0000°N, 0.0000°E)
Time: 19:06:49
(UTC+00:00)
Language:

STARLINK-34832 - Orbit

View from above orbital plane
View from above orbital plane
View from above satellite
View from above satellite

Ground track
Ground track

The orbit is defined by the following mean orbital elements,

1 65475U          26144.80882531 +.00000000 +00000-0 +10710-2 0 00003
2 65475  53.1591 264.2074 0000487  92.2258 267.8800 15.34420145    05
Epoch (UTC): 24 May 2026 19:24:42
Eccentricity: 0.0000487
inclination: 53.1591°
perigee height: 462 km
apogee height: 463 km
right ascension of ascending node: 264.2074°
argument of perigee: 92.2258°
revolutions per day: 15.34420145
mean anomaly at epoch: 267.8800°

The dashed part of the orbit path shows where the satellite is in the earth's shadow,  

DLR